Regional Weather Roundup
Issued by NWS

Home | Current Version | Previous Version | Text Only | Print | Product List | Glossary On
Versions: 1 2 3 4 5 6 7 8 9 10 11 12 13 14 15 16 17 18 19 20 21 22 23 24 25 26 27 28 29 30 31 32 33 34 35 36 37 38 39 40 41 42 43 44 45 46 47 48 49 50
483
ASUS45 KABQ 291210
RWRNM
NEW MEXICO REGIONAL WEATHER ROUNDUP
NATIONAL WEATHER SERVICE ALBUQUERQUE NM
600 AM MDT SAT JUL 29 2017

NOTE: "FAIR" MEANS FEW OR NO CLOUDS BELOW 12,000 FEET AGL WITH NO
       SIGNIFICANT WEATHER OR OBSTRUCTIONS TO VISION.

      THIS PRODUCT IS RELEASED AS TWO VERSIONS.  ONE VERSION NEAR
      THE TOP OF THE HOUR CONTAINING PRELIMINARY DATA FROM ALBUQUERQUE
      AND OTHER STATIONS.  A FINAL VERSION WITH ADDITIONAL DATA IS
      ISSUED ABOUT 10 MINUTES AFTER THE HOUR.

NMZ501-503-504-510>518-291300-
NORTHWEST PLATEAU/NORTHCENTRAL MOUNTAINS

CITY           SKY/WX    TMP DP  RH WIND       PRES   REMARKS
FARMINGTON     LGT RAIN  63  63 100 N6        30.21R
6HR MIN TEMP:  63; 6HR MAX TEMP:  67; 6HR PCP:  0.06;

LOS ALAMOS     FAIR      60  56  84 CALM      30.32R
SANTA FE       FAIR      61  61 100 N10       30.26R
6HR MIN TEMP:  61; 6HR MAX TEMP:  68;

TAOS           FAIR      57  48  72 N6          N/A
ANGEL FIRE     CLOUDY    54  53  95 CALM      30.42R

$$
NMZ402-403-502-505>509-291300-
WESTCENTRAL MOUNTAINS/SOUTHWEST MOUNTAINS

CITY           SKY/WX    TMP DP  RH WIND       PRES   REMARKS
GALLUP         FAIR      56  55  97 W5        30.27R
6HR MIN TEMP:  56; 6HR MAX TEMP:  63; 6HR PCP:  0.01;

GRANTS         FAIR      58  56  92 W6        30.31R
SILVER CITY    FAIR      60  56  87 N5        30.17R

$$
NMZ407-409-411-412-291300-
SOUTHERN DESERTS

CITY           SKY/WX    TMP DP  RH WIND       PRES   REMARKS
DEMING         FAIR      65  61  87 SW7       30.11R
6HR MIN TEMP:  65; 6HR MAX TEMP:  70;

LAS CRUCES     FAIR      66  60  80 S6        30.12R
HOLLOMAN AFB   FAIR      70  58  66 SE5       30.08R
ALAMOGORDO     FAIR      68  57  68 CALM      30.09R
T OR C         FAIR      72  55  55 NW7       30.11S
6HR MIN TEMP:  72; 6HR MAX TEMP:  79;


$$
NMZ519>523-291300-
CENTRAL VALLEYS/CENTRAL HIGHLANDS

CITY           SKY/WX    TMP DP  RH WIND       PRES   REMARKS
ALBUQUERQUE    FAIR      68  59  73 N6        30.20R
6HR MIN TEMP:  68; 6HR MAX TEMP:  75;

DOUBLE EAGLE   MOCLDY    63  55  77 NW8       30.23R
MORIARTY ARPT  FAIR      58  57  99 NE3       30.26R
6HR MIN TEMP:  57; 6HR MAX TEMP:  68;

CLINES CORNERS FAIR      61  51  70 E7        30.30R
6HR MIN TEMP:  60; 6HR MAX TEMP:  65; 6HR PCP:  0.02;

BELEN          FAIR      64  58  79 NW7       30.18S
6HR MIN TEMP:  64; 6HR MAX TEMP:  74;

SOCORRO        FAIR      70  55  59 CALM      30.14R
6HR MIN TEMP:  68; 6HR MAX TEMP:  75;


$$
NMZ524>526-539-540-291300-
SOUTHCENTRAL MOUNTAINS

CITY           SKY/WX    TMP DP  RH WIND       PRES   REMARKS
RUIDOSO        FAIR      59  48  67 W7        30.29S

$$
NMZ527>531-291300-
NORTHEAST HIGHLANDS/NORTHEAST PLAINS

CITY           SKY/WX    TMP DP  RH WIND       PRES   REMARKS
LAS VEGAS      FAIR      58  56  93 NE10      30.30R
6HR MIN TEMP:  58; 6HR MAX TEMP:  62; 6HR PCP:  0.04;

RATON          FAIR      60  58  92 N5        30.28R
6HR MIN TEMP:  60; 6HR MAX TEMP:  67; 6HR PCP:  0.13;

CLAYTON        MOCLDY    62  62 100 N10       30.22R
6HR MIN TEMP:  62; 6HR MAX TEMP:  71; 6HR PCP:  0.22;


$$
NMZ532>537-291300-
EASTCENTRAL PLAINS

CITY           SKY/WX    TMP DP  RH WIND       PRES   REMARKS
SANTA ROSA     FAIR      69  59  69 N9        30.14R
TUCUMCARI      FAIR      71  64  78 E5        30.09R
6HR MIN TEMP:  71; 6HR MAX TEMP:  84; 6HR PCP: TRACE;

CANNON AFB     FAIR      70  55  57 CALM      30.13R
6HR MIN TEMP:  67; 6HR MAX TEMP:  75;

CLOVIS AIRPORT MOCLDY    65  58  78 N12       30.13R

$$
NMZ028-029-538-291300-
SOUTHEAST PLAINS

CITY           SKY/WX    TMP DP  RH WIND       PRES   REMARKS
ROSWELL        FAIR      71  52  50 CALM      30.04R
6HR MIN TEMP:  71; 6HR MAX TEMP:  80;

ARTESIA        FAIR      72  52  49 W5        30.04R
CARLSBAD       FAIR      72  59  63 NE6       30.01R
6HR MIN TEMP:  72; 6HR MAX TEMP:  83;

HOBBS          CLEAR     70  52  52 S5        30.06S


$$




USA.gov is the U.S. government's official web portal to all federal, state and local government web resources and services.